Location: Cabeza de los Veneras
(40.2000°N, 5.2000°W)
Time: 02:27:03
(UTC+00:00)

Cosmos 1656 - Pass Details

Date: 18 April 2024
Orbit: 799 x 847 km, 71.1° (Epoch: 25 May)

Event Time Altitude Azimuth Distance (km) Brightness Sun altitude
Rises 20:32:34 0° 192° (SSW) 3,364 6.6 -16.5°
Reaches altitude 10° 20:35:01 10° 189° (S) 2,427 5.9 -16.9°
Maximum altitude 20:40:30 63° 109° (ESE) 915 3.6 -17.8°
Drops below altitude 10° 20:45:57 10° 30° (NNE) 2,410 6.1 -18.7°
Sets 20:48:22 0° 27° (NNE) 3,339 6.9 -19.0°
